Waskish, MN

8:25 PM CDT on July 23, 2017 (GMT -0500)
Waskish Municipal

Weather History for KVWU - March, 2013

Change the Weather History Date:

Tuesday, March 19, 2013

  Actual Average (KBDE) Record (KBDE)
Temperature  
Mean Temperature 6 °F -  
Max Temperature 17 °F 39 °F 77 °F (2012)
Min Temperature -5 °F 15 °F -14 °F (1949)
Degree Days  
Heating Degree Days 59    
Moisture  
Dew Point -1 °F    
Average Humidity 74    
Maximum Humidity 92    
Minimum Humidity 58    
Precipitation  
Precipitation 0.00 in - - ()
Sea Level Pressure  
Sea Level Pressure 29.97 in    
Wind  
Wind Speed 11 mph (West)    
Max Wind Speed 17 mph    
Max Gust Speed 24 mph    
Visibility 10 miles    
Events Snow    
Averages and records for this station are not official NWS values.
T = Trace of Precipitation, MM = Missing Value Source: NWS Daily Summary

Daily Weather History Graph

Daily Weather History Graph

Search for Another Location

Airport or City:

Trip Planner

Search our weather history database for the weather conditions in past years. The results will help you decide how hot, cold, wet, or windy it might be!

Date:

Astronomy

Mar. 19, 2013 Rise Set
Actual Time 7:22 AM CDT 7:29 PM CDT
Civil Twilight 6:51 AM CDT 8:00 PM CDT
Nautical Twilight 6:14 AM CDT 8:37 PM CDT
Astronomical Twilight 5:37 AM CDT 9:15 PM CDT
Moon 11:48 AM CDT (3/19) 2:42 AM CDT (3/19)
Length of Visible Light 13h 09m
Length of Day
12h 07m
Waxing Crescent, 50% of the Moon is Illuminated
Mar 19
Waxing Crescent
Mar 19
First Quarter
Mar 27
Full
Apr 2
Last Quarter
Apr 10
New

Hourly Weather History & Observations

Time (CDT) Temp. Windchill Dew Point Humidity Pressure Visibility Wind Dir Wind Speed Gust Speed Precip Events Conditions
12:10 AM 8.6 °F -7.0 °F 5.0 °F 85% 29.75 in 10.0 mi WNW 12.7 mph 20.7 mph N/A   Mostly Cloudy
12:29 AM 8.6 °F -7.0 °F 5.0 °F 85% 29.76 in 10.0 mi West 12.7 mph 16.1 mph N/A   Mostly Cloudy
12:49 AM 8.6 °F -5.5 °F 5.0 °F 85% 29.77 in 10.0 mi West 10.4 mph - N/A Snow Light Snow
1:10 AM 8.6 °F -6.3 °F 3.2 °F 79% 29.77 in 10.0 mi WNW 11.5 mph - N/A   Mostly Cloudy
1:49 AM 8.6 °F -5.5 °F 3.2 °F 79% 29.78 in 10.0 mi West 10.4 mph - N/A   Mostly Cloudy
2:09 AM 6.8 °F -7.8 °F 3.2 °F 85% 29.79 in 10.0 mi WNW 10.4 mph - N/A   Mostly Cloudy
2:29 AM 6.8 °F -7.8 °F 3.2 °F 85% 29.79 in 10.0 mi WNW 10.4 mph 16.1 mph N/A   Scattered Clouds
2:50 AM 6.8 °F -9.3 °F 3.2 °F 85% 29.80 in 10.0 mi WNW 12.7 mph - N/A   Clear
3:09 AM 5.0 °F -10.0 °F 1.4 °F 85% 29.81 in 10.0 mi West 10.4 mph - N/A   Clear
3:29 AM 3.2 °F -11.3 °F -0.4 °F 85% 29.81 in 10.0 mi West 9.2 mph - N/A   Clear
3:50 AM 3.2 °F -11.3 °F -0.4 °F 85% 29.82 in 10.0 mi West 9.2 mph - N/A   Clear
4:09 AM 1.4 °F -12.5 °F -0.4 °F 92% 29.83 in 10.0 mi West 8.1 mph - N/A   Clear
4:29 AM 1.4 °F -12.5 °F -2.2 °F 85% 29.83 in 10.0 mi West 8.1 mph - N/A   Clear
4:50 AM -0.4 °F -14.7 °F -2.2 °F 92% 29.84 in 10.0 mi West 8.1 mph - N/A   Clear
5:09 AM -0.4 °F -14.7 °F -5.8 °F 78% 29.85 in 10.0 mi WSW 8.1 mph - N/A   Clear
5:29 AM -2.2 °F -15.6 °F -5.8 °F 85% 29.86 in 10.0 mi WSW 6.9 mph - N/A   Clear
5:50 AM -2.2 °F -18.0 °F -5.8 °F 85% 29.87 in 10.0 mi WSW 9.2 mph - N/A   Clear
6:09 AM -2.2 °F -18.0 °F -5.8 °F 85% 29.88 in 10.0 mi WSW 9.2 mph - N/A   Clear
6:29 AM -4.0 °F -19.0 °F -7.6 °F 85% 29.89 in 10.0 mi WSW 8.1 mph - N/A   Clear
6:50 AM -4.0 °F -20.2 °F -7.6 °F 85% 29.90 in 10.0 mi WSW 9.2 mph - N/A   Clear
7:09 AM -4.0 °F -19.0 °F -7.6 °F 85% 29.91 in 10.0 mi WSW 8.1 mph - N/A   Clear
7:29 AM -5.8 °F -19.9 °F -9.4 °F 84% 29.92 in 10.0 mi WSW 6.9 mph - N/A   Clear
7:50 AM -5.8 °F -22.4 °F -9.4 °F 84% 29.93 in 10.0 mi WSW 9.2 mph - N/A   Clear
8:09 AM -2.2 °F -18.0 °F -7.6 °F 78% 29.93 in 10.0 mi WSW 9.2 mph - N/A   Clear
8:29 AM -5.8 °F -22.4 °F -9.4 °F 84% 29.94 in 10.0 mi WSW 9.2 mph - N/A   Clear
8:50 AM -4.0 °F -20.2 °F -7.6 °F 85% 29.95 in 10.0 mi WSW 9.2 mph - N/A   Clear
9:09 AM -2.2 °F -18.9 °F -7.6 °F 78% 29.96 in 10.0 mi WSW 10.4 mph - N/A   Clear
9:30 AM -0.4 °F -16.7 °F -5.8 °F 78% 29.97 in 10.0 mi WSW 10.4 mph - N/A   Clear
9:49 AM 3.2 °F -13.1 °F -2.2 °F 78% 29.97 in 10.0 mi WSW 11.5 mph 17.3 mph N/A   Clear
10:09 AM 5.0 °F -9.1 °F -2.2 °F 72% 29.98 in 10.0 mi West 9.2 mph - N/A   Clear
10:30 AM 6.8 °F -7.8 °F -0.4 °F 72% 29.98 in 10.0 mi West 10.4 mph - N/A   Clear
10:49 AM 8.6 °F -6.3 °F 1.4 °F 73% 29.98 in 10.0 mi West 11.5 mph - N/A   Clear
11:09 AM 10.4 °F -4.1 °F 1.4 °F 67% 29.99 in 10.0 mi West 11.5 mph - N/A   Clear
11:30 AM 10.4 °F -4.1 °F 1.4 °F 67% 29.99 in 10.0 mi West 11.5 mph - N/A   Clear
11:49 AM 12.2 °F -3.1 °F 3.2 °F 67% 30.00 in 10.0 mi West 13.8 mph 18.4 mph N/A   Clear
12:09 PM 12.2 °F -3.1 °F 3.2 °F 67% 30.00 in 10.0 mi West 13.8 mph - N/A   Clear
12:30 PM 14.0 °F -0.8 °F 3.2 °F 62% 30.01 in 10.0 mi West 13.8 mph - N/A   Clear
12:49 PM 15.8 °F 1.4 °F 3.2 °F 58% 30.01 in 10.0 mi West 13.8 mph - N/A   Clear
1:09 PM 15.8 °F 2.1 °F 5.0 °F 62% 30.01 in 10.0 mi West 12.7 mph 20.7 mph N/A   Clear
1:30 PM 15.8 °F 0.9 °F 5.0 °F 62% 30.01 in 10.0 mi West 15.0 mph - N/A   Scattered Clouds
1:49 PM 15.8 °F 0.9 °F 5.0 °F 62% 30.01 in 10.0 mi West 15.0 mph 19.6 mph N/A   Scattered Clouds
2:09 PM 15.8 °F 0.9 °F 6.8 °F 68% 30.01 in 10.0 mi West 15.0 mph - N/A   Clear
2:30 PM 17.6 °F 3.7 °F 6.8 °F 63% 30.01 in 10.0 mi West 13.8 mph 19.6 mph N/A   Clear
2:49 PM 17.6 °F 4.3 °F 6.8 °F 63% 30.01 in 10.0 mi West 12.7 mph 20.7 mph N/A   Clear
3:09 PM 17.6 °F 2.7 °F 6.8 °F 63% 30.02 in 10.0 mi West 16.1 mph 20.7 mph N/A   Clear
3:30 PM 15.8 °F 0.3 °F 6.8 °F 68% 30.03 in 10.0 mi West 16.1 mph - N/A   Clear
3:49 PM 15.8 °F 1.4 °F 6.8 °F 68% 30.03 in 10.0 mi West 13.8 mph 20.7 mph N/A   Clear
4:09 PM 15.8 °F -0.2 °F 6.8 °F 68% 30.04 in 10.0 mi West 17.3 mph 20.7 mph N/A   Clear
4:30 PM 15.8 °F 0.9 °F 5.0 °F 62% 30.05 in 10.0 mi West 15.0 mph 24.2 mph N/A   Clear
4:49 PM 15.8 °F 1.4 °F 5.0 °F 62% 30.05 in 10.0 mi West 13.8 mph - N/A   Clear
5:09 PM 14.0 °F -2.0 °F 3.2 °F 62% 30.06 in 10.0 mi West 16.1 mph 19.6 mph N/A   Clear
5:30 PM 14.0 °F -2.0 °F 3.2 °F 62% 30.07 in 10.0 mi West 16.1 mph 21.9 mph N/A   Clear
5:49 PM 12.2 °F -4.8 °F 3.2 °F 67% 30.08 in 10.0 mi West 17.3 mph 23.0 mph N/A   Clear
6:09 PM 12.2 °F -4.3 °F 3.2 °F 67% 30.08 in 10.0 mi West 16.1 mph - N/A   Clear
6:30 PM 10.4 °F -6.0 °F 1.4 °F 67% 30.09 in 10.0 mi West 15.0 mph 19.6 mph N/A   Clear
6:49 PM 10.4 °F -5.4 °F 1.4 °F 67% 30.10 in 10.0 mi West 13.8 mph 19.6 mph N/A   Clear
7:09 PM 8.6 °F -7.7 °F -0.4 °F 67% 30.10 in 10.0 mi West 13.8 mph - N/A   Clear
7:30 PM 6.8 °F -9.3 °F -0.4 °F 72% 30.11 in 10.0 mi West 12.7 mph - N/A   Clear
7:49 PM 6.8 °F -9.3 °F -2.2 °F 67% 30.11 in 10.0 mi West 12.7 mph - N/A   Clear
8:29 PM 3.2 °F -13.1 °F -4.0 °F 72% 30.12 in 10.0 mi West 11.5 mph - N/A   Clear
8:49 PM 3.2 °F -12.2 °F -4.0 °F 72% 30.12 in 10.0 mi West 10.4 mph - N/A   Clear
9:09 PM 3.2 °F -11.3 °F -5.8 °F 66% 30.12 in 10.0 mi West 9.2 mph - N/A   Clear
9:29 PM 1.4 °F -13.5 °F -5.8 °F 72% 30.13 in 10.0 mi West 9.2 mph - N/A   Clear
9:49 PM 1.4 °F -12.5 °F -5.8 °F 72% 30.13 in 10.0 mi West 8.1 mph - N/A   Clear
10:09 PM 1.4 °F -14.5 °F -5.8 °F 72% 30.13 in 10.0 mi West 10.4 mph - N/A   Clear
10:29 PM -0.4 °F -16.7 °F -7.6 °F 72% 30.12 in 10.0 mi West 10.4 mph - N/A   Clear
10:49 PM -0.4 °F -14.7 °F -7.6 °F 72% 30.12 in 10.0 mi West 8.1 mph - N/A   Clear
11:10 PM -2.2 °F -14.2 °F -7.6 °F 78% 30.12 in 10.0 mi West 5.8 mph - N/A   Clear
11:29 PM -2.2 °F -12.5 °F -7.6 °F 78% 30.12 in 10.0 mi West 4.6 mph - N/A   Clear
11:49 PM -0.4 °F -13.4 °F -7.6 °F 72% 30.12 in 10.0 mi West 6.9 mph - N/A   Clear